Tracking 22440 objects as of 27-Feb-2021
HD Live streaming from Space Station
objects crossing your sky now

OKEAN O

Track OKEAN O now!
10-day predictions
OKEAN O is classified as:


NORAD ID: 25860
Int'l Code: 1999-039A
Perigee: 645.6 km
Apogee: 648.1 km
Inclination: 98.2 °
Period: 97.5 minutes
Semi major axis: 7017 km
RCS: 19.8052 m2 (large)
Launch date: July 17, 1999
Source: Commonwealth of Independent States (former USSR) (CIS)
Launch site: TYURATAM MISSILE AND SPACE COMPLEX (TTMTR)
aabbcc
Your satellite tracking list
Your tracking list is empty




NASA's NSSDC Master Catalog

Two Line Element Set (TLE):
1 25860U 99039A   21058.08533649  .00000082  00000-0  19373-4 0  9992
2 25860  98.1957  87.2497 0001771 104.6609 255.4796 14.76714171163187
Source of the keplerian elements: AFSPC